Flag for U.S.A. Weather past 2 weeks in Lansing, Michigan, U.S.A.

Now
66 °F

Clear.


Feels Like: 66 °F
Forecast: 67 / 77 °F
Wind: 9 mph from South

Location: Capital City Airport

Current Time: May 25, 2015 at 3:56:41 AM

Latest Report: May 25, 2015 at 2:53 AM


Visibility: 10 mi

Pressure: 29.98 "Hg

Humidity: 63%

Dew point: 53 °F

Location of LansingLocation

Historic Weather in Lansing — Graph

°F

Lansing temperature yesterday

Maximum temperature yesterday: 74 °F (at 1:53 PM)
Minimum temperature yesterday: 56 °F (at 12:53 AM)
Average temperature yesterday: 67 °F

Past Weeks' High & Low Weather Summary

 TemperatureHumidityPressure
High82 °F (May 18, 2:53 PM)100% (May 11, 5:53 AM)30.47 "Hg (May 11, 5:53 AM)
Low34 °F (May 20, 4:53 AM)22% (May 23, 3:53 PM)29.77 "Hg (May 11, 6:53 PM)
Average58 °F67%30.12 "Hg
* Reported May 10 1:53 AM — May 25 1:53 AM, Lansing, Weather by CustomWeather, © 2015

Note: Actual official high and low records may vary slightly from our data, if they occured in-between our weather recording intervals... More about our weather records

Advertising

Lansing weather history for previous 24 hours

 ConditionsComfort  
Time TempWeatherWind HumidityBarometerVisibility
1:53 AM
Mon, May 25
68 °FClear.12 mph55%30.00 "Hg10 mi
12:53 AM69 °FClear.9 mph53%30.01 "Hg10 mi
11:53 PM
Sun, May 24
68 °FMostly cloudy.8 mph55%30.02 "Hg10 mi
10:53 PM71 °FPartly cloudy.8 mph51%30.04 "Hg10 mi
9:53 PM71 °FPartly sunny.8 mph55%30.05 "Hg10 mi
8:53 PM70 °FOvercast.7 mph59%30.06 "Hg10 mi
7:53 PM71 °FScattered clouds.7 mph61%30.06 "Hg10 mi
7:02 PM72 °FLight rain. Overcast.8 mph55%30.09 "Hg10 mi
6:53 PM73 °FLight rain. Cloudy.7 mph51%30.09 "Hg10 mi
5:53 PM74 °FPassing clouds.9 mph52%30.13 "Hg10 mi
4:53 PM74 °FPartly sunny.5 mph56%30.15 "Hg10 mi
3:53 PM74 °FMore clouds than sun.3 mph48%30.18 "Hg10 mi
2:53 PM74 °FOvercast.8 mph45%30.19 "Hg10 mi
1:53 PM74 °FOvercast.8 mph46%30.21 "Hg10 mi
12:53 PM73 °FPartly sunny.10 mph48%30.22 "Hg10 mi
11:53 AM71 °FScattered clouds.12 mph49%30.24 "Hg10 mi
10:53 AM71 °FSunny.10 mph49%30.23 "Hg10 mi
9:53 AM70 °FSunny.9 mph47%30.23 "Hg10 mi
8:53 AM66 °FPassing clouds.5 mph56%30.24 "Hg10 mi
7:53 AM62 °FSunny.5 mph60%30.24 "Hg10 mi
6:53 AM59 °FClear.3 mph64%30.25 "Hg10 mi
5:53 AM57 °FClear.No wind64%30.25 "Hg10 mi
4:53 AM59 °FOvercast.6 mph60%30.23 "Hg10 mi
3:53 AM60 °FOvercast.No wind58%30.23 "Hg10 mi
Weather by CustomWeather, © 2015

See weather overviewHow to use our weather pages